Powrót do katalogu

STARLINK-34106

AktywnyŁącznośćVLEO
NORAD 63907·PAYLOAD·🇺🇸 United States

Wystrzelony May 10, 2025 z Cape Canaveral Space Force Station

Loading…

Następne Przeloty (najbliższe 24 godziny)

TLE

ŚwieżeSource: CelesTrak SupGP

Epoka: Sep 14, 2026, 20:45 UTC

1 63907C 25095T   26257.86506944  .00010412  00000+0  37716-3 0  2571
2 63907  43.0031 187.5411 0001322 258.1554  89.9921 15.27569827    14

Śledź STARLINK-34106 w czasie rzeczywistym z AllMySat

Download on the App Store